This is the latest recevied weather packets stored in our database for station/object VE2XOX. If no packets are shown the sender has not sent any weather packets the latest 10 day(s).
| Time | Temp. | Humidity | Pressure | Rain* | Wind** | Luminosity | Snow |
|---|---|---|---|---|---|---|---|
| 1777731616 | 7.78° C | 52% | 1011.5 hPa | 0 mm | - | - | - |
| 1777731319 | 7.78° C | 51% | 1011.6 hPa | 0 mm | - | - | - |
| 1777731029 | 7.22° C | 52% | 1011.7 hPa | 0 mm | - | - | - |
| 1777730712 | 7.22° C | 54% | 1011.7 hPa | 0 mm | - | - | - |
| 1777730418 | 7.22° C | 54% | 1011.8 hPa | 0 mm | - | - | - |
| 1777730130 | 7.22° C | 55% | 1011.8 hPa | 0 mm | - | - | - |
| 1777729813 | 6.67° C | 54% | 1011.9 hPa | 0 mm | - | - | - |
| 1777729518 | 6.67° C | 54% | 1011.9 hPa | 0 mm | - | - | - |
| 1777729228 | 6.67° C | 54% | 1011.8 hPa | 0 mm | - | - | - |
| 1777728912 | 6.67° C | 57% | 1011.9 hPa | 0 mm | - | - | - |
| 1777699214 | -0.56° C | 87% | 1010.6 hPa | 0 mm | - | - | - |
| 1777698918 | -0.56° C | 87% | 1010.6 hPa | 0 mm | - | - | - |
| 1777698629 | 0° C | 87% | 1010.6 hPa | 0 mm | - | - | - |
| 1777698314 | 0° C | 86% | 1010.6 hPa | 0 mm | - | - | - |
| 1777698019 | 0° C | 86% | 1010.5 hPa | 0 mm | - | - | - |
| 1777697729 | 0° C | 86% | 1010.5 hPa | 0 mm | - | - | - |
| 1777697414 | 0° C | 85% | 1010.5 hPa | 0 mm | - | - | - |
| 1777697119 | 0° C | 85% | 1010.4 hPa | 0 mm | - | - | - |
| 1777696831 | 0.56° C | 84% | 1010.4 hPa | 0 mm | - | - | - |
| 1777696516 | 0.56° C | 84% | 1010.4 hPa | 0 mm | - | - | - |
| 1777696218 | 1.11° C | 83% | 1010.4 hPa | 0 mm | - | - | - |
| 1777695927 | 1.11° C | 83% | 1010.4 hPa | 0 mm | - | - | - |
| 1777695611 | 1.11° C | 83% | 1010.4 hPa | 0 mm | - | - | - |
| 1777695317 | 1.11° C | 83% | 1010.3 hPa | 0 mm | - | - | - |
| 1777695028 | 1.11° C | 83% | 1010.3 hPa | 0 mm | - | - | - |
* Rain latest hour (hover to see other rain measurements)
** Current wind speed in m/s (hover to see current wind gust speed)